Year,Month,Day,Hour,Minute,Value (Times are PST for temperature in C)
2012,04,02,00,00,4.30
2012,04,02,00,01,4.30
2012,04,02,00,02,4.30
2012,04,02,00,03,4.30
2012,04,02,00,04,4.20
2012,04,02,00,05,4.20
2012,04,02,00,06,4.20
2012,04,02,00,07,4.20
2012,04,02,00,08,4.20
2012,04,02,00,09,4.20
2012,04,02,00,10,4.10
2012,04,02,00,11,4.10
2012,04,02,00,12,4.10
2012,04,02,00,13,4.10
2012,04,02,00,14,4.00
2012,04,02,00,15,4.00
2012,04,02,00,16,4.00
2012,04,02,00,17,4.00
2012,04,02,00,18,3.90
2012,04,02,00,19,3.90
2012,04,02,00,20,3.90
2012,04,02,00,21,3.90
2012,04,02,00,22,3.90
2012,04,02,00,23,3.80
2012,04,02,00,24,3.80
2012,04,02,00,25,3.80
2012,04,02,00,26,3.80
2012,04,02,00,27,3.70
2012,04,02,00,28,3.70
2012,04,02,00,29,3.70
2012,04,02,00,30,3.70
2012,04,02,00,31,3.70
2012,04,02,00,32,3.70
2012,04,02,00,33,3.60
2012,04,02,00,34,3.60
2012,04,02,00,35,3.60
2012,04,02,00,36,3.60
2012,04,02,00,37,3.60
2012,04,02,00,38,3.60
2012,04,02,00,39,3.60
2012,04,02,00,40,3.60
2012,04,02,00,41,3.60
2012,04,02,00,42,3.60
2012,04,02,00,43,3.60
2012,04,02,00,44,3.60
2012,04,02,00,45,3.60
2012,04,02,00,46,3.50
2012,04,02,00,47,3.50
2012,04,02,00,48,3.50
2012,04,02,00,49,3.50
2012,04,02,00,50,3.40
2012,04,02,00,51,3.40
2012,04,02,00,52,3.40
2012,04,02,00,53,3.40
2012,04,02,00,54,3.40
2012,04,02,00,55,3.40
2012,04,02,00,56,3.40
2012,04,02,00,57,3.40
2012,04,02,00,58,3.40
2012,04,02,00,59,3.40
2012,04,02,01,00,3.40
2012,04,02,01,01,3.30
2012,04,02,01,02,3.30
2012,04,02,01,03,3.30
2012,04,02,01,04,3.30
2012,04,02,01,05,3.30
2012,04,02,01,06,3.30
2012,04,02,01,07,3.30
2012,04,02,01,08,3.30
2012,04,02,01,09,3.30
2012,04,02,01,10,3.30
2012,04,02,01,11,3.30
2012,04,02,01,12,3.30
2012,04,02,01,13,3.30
2012,04,02,01,14,3.30
2012,04,02,01,15,3.30
2012,04,02,01,16,3.30
2012,04,02,01,17,3.30
2012,04,02,01,18,3.30
2012,04,02,01,19,3.30
2012,04,02,01,20,3.30
2012,04,02,01,21,3.40
2012,04,02,01,22,3.40
2012,04,02,01,23,3.30
2012,04,02,01,24,3.40
2012,04,02,01,25,3.40
2012,04,02,01,26,3.40
2012,04,02,01,27,3.40
2012,04,02,01,28,3.40
2012,04,02,01,29,3.40
2012,04,02,01,30,3.40
2012,04,02,01,31,3.40
2012,04,02,01,32,3.40
2012,04,02,01,33,3.40
2012,04,02,01,34,3.40
2012,04,02,01,35,3.40
2012,04,02,01,36,3.40
2012,04,02,01,37,3.40
2012,04,02,01,38,3.40
2012,04,02,01,39,3.40
2012,04,02,01,40,3.40
2012,04,02,01,41,3.40
2012,04,02,01,42,3.40
2012,04,02,01,43,3.40
2012,04,02,01,44,3.40
2012,04,02,01,45,3.40
2012,04,02,01,46,3.40
2012,04,02,01,47,3.40
2012,04,02,01,48,3.40
2012,04,02,01,49,3.40
2012,04,02,01,50,3.40
2012,04,02,01,51,3.40
2012,04,02,01,52,3.40
2012,04,02,01,53,3.40
2012,04,02,01,54,3.40
2012,04,02,01,55,3.40
2012,04,02,01,56,3.40
2012,04,02,01,57,3.40
2012,04,02,01,58,3.40
2012,04,02,01,59,3.40
2012,04,02,02,00,3.40
2012,04,02,02,01,3.40
2012,04,02,02,02,3.40
2012,04,02,02,03,3.40
2012,04,02,02,04,3.40
2012,04,02,02,05,3.40
2012,04,02,02,06,3.40
2012,04,02,02,07,3.40
2012,04,02,02,08,3.40
2012,04,02,02,09,3.40
2012,04,02,02,10,3.40
2012,04,02,02,11,3.50
2012,04,02,02,12,3.50
2012,04,02,02,13,3.50
2012,04,02,02,14,3.50
2012,04,02,02,15,3.50
2012,04,02,02,16,3.50
2012,04,02,02,17,3.50
2012,04,02,02,18,3.50
2012,04,02,02,19,3.50
2012,04,02,02,20,3.50
2012,04,02,02,21,3.40
2012,04,02,02,22,3.50
2012,04,02,02,23,3.50
2012,04,02,02,24,3.40
2012,04,02,02,25,3.40
2012,04,02,02,26,3.50
2012,04,02,02,27,3.50
2012,04,02,02,28,3.50
2012,04,02,02,29,3.50
2012,04,02,02,30,3.50
2012,04,02,02,31,3.50
2012,04,02,02,32,3.50
2012,04,02,02,33,3.50
2012,04,02,02,34,3.50
2012,04,02,02,35,3.50
2012,04,02,02,36,3.50
2012,04,02,02,37,3.50
2012,04,02,02,38,3.50
2012,04,02,02,39,3.50
2012,04,02,02,40,3.50
2012,04,02,02,41,3.50
2012,04,02,02,42,3.50
2012,04,02,02,43,3.50
2012,04,02,02,44,3.50
2012,04,02,02,45,3.50
2012,04,02,02,46,3.50
2012,04,02,02,47,3.50
2012,04,02,02,48,3.40
2012,04,02,02,49,3.40
2012,04,02,02,50,3.40
2012,04,02,02,51,3.40
2012,04,02,02,52,3.40
2012,04,02,02,53,3.40
2012,04,02,02,54,3.40
2012,04,02,02,55,3.40
2012,04,02,02,56,3.40
2012,04,02,02,57,3.40
2012,04,02,02,58,3.40
2012,04,02,02,59,3.40
2012,04,02,03,00,3.40
2012,04,02,03,01,3.40
2012,04,02,03,02,3.40
2012,04,02,03,03,3.40
2012,04,02,03,04,3.40
2012,04,02,03,05,3.40
2012,04,02,03,06,3.40
2012,04,02,03,07,3.40
2012,04,02,03,08,3.40
2012,04,02,03,09,3.40
2012,04,02,03,10,3.40
2012,04,02,03,11,3.30
2012,04,02,03,12,3.30
2012,04,02,03,13,3.30
2012,04,02,03,14,3.30
2012,04,02,03,15,3.30
2012,04,02,03,16,3.30
2012,04,02,03,17,3.30
2012,04,02,03,18,3.30
2012,04,02,03,19,3.30
2012,04,02,03,20,3.30
2012,04,02,03,21,3.40
2012,04,02,03,22,3.40
2012,04,02,03,23,3.40
2012,04,02,03,24,3.40
2012,04,02,03,25,3.40
2012,04,02,03,26,3.30
2012,04,02,03,27,3.30
2012,04,02,03,28,3.30
2012,04,02,03,29,3.30
2012,04,02,03,30,3.30
2012,04,02,03,31,3.30
2012,04,02,03,32,3.30
2012,04,02,03,33,3.30
2012,04,02,03,34,3.30
2012,04,02,03,35,3.30
2012,04,02,03,36,3.30
2012,04,02,03,37,3.30
2012,04,02,03,38,3.30
2012,04,02,03,39,3.30
2012,04,02,03,40,3.30
2012,04,02,03,41,3.30
2012,04,02,03,42,3.30
2012,04,02,03,43,3.30
2012,04,02,03,44,3.30
2012,04,02,03,45,3.30
2012,04,02,03,46,3.30
2012,04,02,03,47,3.30
2012,04,02,03,48,3.30
2012,04,02,03,49,3.30
2012,04,02,03,50,3.30
2012,04,02,03,51,3.30
2012,04,02,03,52,3.30
2012,04,02,03,53,3.30
2012,04,02,03,54,3.30
2012,04,02,03,55,3.30
2012,04,02,03,56,3.30
2012,04,02,03,57,3.30
2012,04,02,03,58,3.30
2012,04,02,03,59,3.30
2012,04,02,04,00,3.30
2012,04,02,04,01,3.30
2012,04,02,04,02,3.30
2012,04,02,04,03,3.30
2012,04,02,04,04,3.30
2012,04,02,04,05,3.30
2012,04,02,04,06,3.30
2012,04,02,04,07,3.30
2012,04,02,04,08,3.30
2012,04,02,04,09,3.30
2012,04,02,04,10,3.30
2012,04,02,04,11,3.30
2012,04,02,04,12,3.30
2012,04,02,04,13,3.30
2012,04,02,04,14,3.30
2012,04,02,04,15,3.30
2012,04,02,04,16,3.30
2012,04,02,04,17,3.30
2012,04,02,04,18,3.30
2012,04,02,04,19,3.30
2012,04,02,04,20,3.30
2012,04,02,04,21,3.30
2012,04,02,04,22,3.30
2012,04,02,04,23,3.30
2012,04,02,04,24,3.30
2012,04,02,04,25,3.40
2012,04,02,04,26,3.40
2012,04,02,04,27,3.40
2012,04,02,04,28,3.40
2012,04,02,04,29,3.40
2012,04,02,04,30,3.40
2012,04,02,04,31,3.40
2012,04,02,04,32,3.40
2012,04,02,04,33,3.40
2012,04,02,04,34,3.40
2012,04,02,04,35,3.40
2012,04,02,04,36,3.40
2012,04,02,04,37,3.40
2012,04,02,04,38,3.40
2012,04,02,04,39,3.40
2012,04,02,04,40,3.40
2012,04,02,04,41,3.50
2012,04,02,04,42,3.50
2012,04,02,04,43,3.50
2012,04,02,04,44,3.50
2012,04,02,04,45,3.50
2012,04,02,04,46,3.50
2012,04,02,04,47,3.50
2012,04,02,04,48,3.50
2012,04,02,04,49,3.50
2012,04,02,04,50,3.50
2012,04,02,04,51,3.50
2012,04,02,04,52,3.50
2012,04,02,04,53,3.50
2012,04,02,04,54,3.50
2012,04,02,04,55,3.50
2012,04,02,04,56,3.50
2012,04,02,04,57,3.50
2012,04,02,04,58,3.60
2012,04,02,04,59,3.60
2012,04,02,05,00,3.60
2012,04,02,05,01,3.60
2012,04,02,05,02,3.60
2012,04,02,05,03,3.60
2012,04,02,05,04,3.60
2012,04,02,05,05,3.60
2012,04,02,05,06,3.60
2012,04,02,05,07,3.60
2012,04,02,05,08,3.60
2012,04,02,05,09,3.60
2012,04,02,05,10,3.60
2012,04,02,05,11,3.60
2012,04,02,05,12,3.60
2012,04,02,05,13,3.60
2012,04,02,05,14,3.60
2012,04,02,05,15,3.60
2012,04,02,05,16,3.60
2012,04,02,05,17,3.60
2012,04,02,05,18,3.60
2012,04,02,05,19,3.60
2012,04,02,05,20,3.60
2012,04,02,05,21,3.60
2012,04,02,05,22,3.60
2012,04,02,05,23,3.60
2012,04,02,05,24,3.60
2012,04,02,05,25,3.60
2012,04,02,05,26,3.60
2012,04,02,05,27,3.60
2012,04,02,05,28,3.60
2012,04,02,05,29,3.60
2012,04,02,05,30,3.60
2012,04,02,05,31,3.60
2012,04,02,05,32,3.60
2012,04,02,05,33,3.60
2012,04,02,05,34,3.60
2012,04,02,05,35,3.60
2012,04,02,05,36,3.60
2012,04,02,05,37,3.60
2012,04,02,05,38,3.60
2012,04,02,05,39,3.60
2012,04,02,05,40,3.70
2012,04,02,05,41,3.70
2012,04,02,05,42,3.70
2012,04,02,05,43,3.60
2012,04,02,05,44,3.60
2012,04,02,05,45,3.70
2012,04,02,05,46,3.60
2012,04,02,05,47,3.60
2012,04,02,05,48,3.60
2012,04,02,05,49,3.60
2012,04,02,05,50,3.60
2012,04,02,05,51,3.60
2012,04,02,05,52,3.60
2012,04,02,05,53,3.60
2012,04,02,05,54,3.60
2012,04,02,05,55,3.60
2012,04,02,05,56,3.60
2012,04,02,05,57,3.60
2012,04,02,05,58,3.60
2012,04,02,05,59,3.60
2012,04,02,06,00,3.60
2012,04,02,06,01,3.60
2012,04,02,06,02,3.60
2012,04,02,06,03,3.60
2012,04,02,06,04,3.60
2012,04,02,06,05,3.60
2012,04,02,06,06,3.60
2012,04,02,06,07,3.60
2012,04,02,06,08,3.60
2012,04,02,06,09,3.60
2012,04,02,06,10,3.60
2012,04,02,06,11,3.60
2012,04,02,06,12,3.60
2012,04,02,06,13,3.60
2012,04,02,06,14,3.60
2012,04,02,06,15,3.60
2012,04,02,06,16,3.60
2012,04,02,06,17,3.60
2012,04,02,06,18,3.60
2012,04,02,06,19,3.60
2012,04,02,06,20,3.60
2012,04,02,06,21,3.60
2012,04,02,06,22,3.60
2012,04,02,06,23,3.60
2012,04,02,06,24,3.60
2012,04,02,06,25,3.60
2012,04,02,06,26,3.60
2012,04,02,06,27,3.60
2012,04,02,06,28,3.60
2012,04,02,06,29,3.60
2012,04,02,06,30,3.60
2012,04,02,06,31,3.60
2012,04,02,06,32,3.70
2012,04,02,06,33,3.70
2012,04,02,06,34,3.70
2012,04,02,06,35,3.70
2012,04,02,06,36,3.70
2012,04,02,06,37,3.70
2012,04,02,06,38,3.70
2012,04,02,06,39,3.70
2012,04,02,06,40,3.70
2012,04,02,06,41,3.70
2012,04,02,06,42,3.70
2012,04,02,06,43,3.70
2012,04,02,06,44,3.70
2012,04,02,06,45,3.70
2012,04,02,06,46,3.70
2012,04,02,06,47,3.70
2012,04,02,06,48,3.70
2012,04,02,06,49,3.70
2012,04,02,06,50,3.80
2012,04,02,06,51,3.80
2012,04,02,06,52,3.80
2012,04,02,06,53,3.80
2012,04,02,06,54,3.80
2012,04,02,06,55,3.80
2012,04,02,06,56,3.80
2012,04,02,06,57,3.80
2012,04,02,06,58,3.80
2012,04,02,06,59,3.80
2012,04,02,07,00,3.80
2012,04,02,07,01,3.80
2012,04,02,07,02,3.80
2012,04,02,07,03,3.80
2012,04,02,07,04,3.80
2012,04,02,07,05,3.80
2012,04,02,07,06,3.80
2012,04,02,07,07,3.80
2012,04,02,07,08,3.90
2012,04,02,07,09,3.90
2012,04,02,07,10,3.90
2012,04,02,07,11,3.90
2012,04,02,07,12,3.90
2012,04,02,07,13,3.90
2012,04,02,07,14,3.90
2012,04,02,07,15,3.90
2012,04,02,07,16,3.90
2012,04,02,07,17,3.90
2012,04,02,07,18,3.90
2012,04,02,07,19,3.90
2012,04,02,07,20,3.90
2012,04,02,07,21,3.90
2012,04,02,07,22,3.90
2012,04,02,07,23,3.90
2012,04,02,07,24,3.90
2012,04,02,07,25,3.90
2012,04,02,07,26,3.90
2012,04,02,07,27,3.90
2012,04,02,07,28,3.90
2012,04,02,07,29,3.90
2012,04,02,07,30,4.00
2012,04,02,07,31,4.00
2012,04,02,07,32,4.00
2012,04,02,07,33,4.00
2012,04,02,07,34,4.00
2012,04,02,07,35,4.00
2012,04,02,07,36,4.00
2012,04,02,07,37,4.00
2012,04,02,07,38,4.00
2012,04,02,07,39,4.00
2012,04,02,07,40,4.00
2012,04,02,07,41,4.00
2012,04,02,07,42,4.00
2012,04,02,07,43,4.00
2012,04,02,07,44,4.00
2012,04,02,07,45,4.00
2012,04,02,07,46,4.00
2012,04,02,07,47,4.00
2012,04,02,07,48,4.00
2012,04,02,07,49,4.00
2012,04,02,07,50,4.00
2012,04,02,07,51,4.00
2012,04,02,07,52,4.00
2012,04,02,07,53,4.00
2012,04,02,07,54,4.00
2012,04,02,07,55,4.00
2012,04,02,07,56,4.10
2012,04,02,07,57,4.10
2012,04,02,07,58,4.10
2012,04,02,07,59,4.10
2012,04,02,08,00,4.10
2012,04,02,08,01,4.10
2012,04,02,08,02,4.10
2012,04,02,08,03,4.10
2012,04,02,08,04,4.10
2012,04,02,08,05,4.10
2012,04,02,08,06,4.10
2012,04,02,08,07,4.10
2012,04,02,08,08,4.10
2012,04,02,08,09,4.10
2012,04,02,08,10,4.10
2012,04,02,08,11,4.10
2012,04,02,08,12,4.10
2012,04,02,08,13,4.20
2012,04,02,08,14,4.20
2012,04,02,08,15,4.20
2012,04,02,08,16,4.20
2012,04,02,08,17,4.20
2012,04,02,08,18,4.20
2012,04,02,08,19,4.20
2012,04,02,08,20,4.20
2012,04,02,08,21,4.20
2012,04,02,08,22,4.20
2012,04,02,08,23,4.20
2012,04,02,08,24,4.20
2012,04,02,08,25,4.20
2012,04,02,08,26,4.20
2012,04,02,08,27,4.30
2012,04,02,08,28,4.30
2012,04,02,08,29,4.30
2012,04,02,08,30,4.30
2012,04,02,08,31,4.30
2012,04,02,08,32,4.30
2012,04,02,08,33,4.30
2012,04,02,08,34,4.30
2012,04,02,08,35,4.30
2012,04,02,08,36,4.30
2012,04,02,08,37,4.30
2012,04,02,08,38,4.30
2012,04,02,08,39,4.40
2012,04,02,08,40,4.40
2012,04,02,08,41,4.40
2012,04,02,08,42,4.40
2012,04,02,08,43,4.40
2012,04,02,08,44,4.40
2012,04,02,08,45,4.50
2012,04,02,08,46,4.50
2012,04,02,08,47,4.50
2012,04,02,08,48,4.50
2012,04,02,08,49,4.60
2012,04,02,08,50,4.60
2012,04,02,08,51,4.60
2012,04,02,08,52,4.60
2012,04,02,08,53,4.60
2012,04,02,08,54,4.70
2012,04,02,08,55,4.70
2012,04,02,08,56,4.70
2012,04,02,08,57,4.70
2012,04,02,08,58,4.70
2012,04,02,08,59,4.80
2012,04,02,09,00,4.80
2012,04,02,09,01,4.80
2012,04,02,09,02,4.80
2012,04,02,09,03,4.80
2012,04,02,09,04,4.80
2012,04,02,09,05,4.90
2012,04,02,09,06,4.90
2012,04,02,09,07,4.90
2012,04,02,09,08,4.90
2012,04,02,09,09,5.00
2012,04,02,09,10,5.00
2012,04,02,09,11,5.00
2012,04,02,09,12,5.10
2012,04,02,09,13,5.10
2012,04,02,09,14,5.10
2012,04,02,09,15,5.10
2012,04,02,09,16,5.20
2012,04,02,09,17,5.20
2012,04,02,09,18,5.20
2012,04,02,09,19,5.30
2012,04,02,09,20,5.30
2012,04,02,09,21,5.30
2012,04,02,09,22,5.30
2012,04,02,09,23,5.30
2012,04,02,09,24,5.30
2012,04,02,09,25,5.40
2012,04,02,09,26,5.40
2012,04,02,09,27,5.40
2012,04,02,09,28,5.40
2012,04,02,09,29,5.50
2012,04,02,09,30,5.50
2012,04,02,09,31,5.60
2012,04,02,09,32,5.60
2012,04,02,09,33,5.60
2012,04,02,09,34,5.60
2012,04,02,09,35,5.70
2012,04,02,09,36,5.70
2012,04,02,09,37,5.70
2012,04,02,09,38,5.80
2012,04,02,09,39,5.80
2012,04,02,09,40,5.80
2012,04,02,09,41,5.90
2012,04,02,09,42,5.90
2012,04,02,09,43,5.90
2012,04,02,09,44,6.00
2012,04,02,09,45,6.00
2012,04,02,09,46,6.10
2012,04,02,09,47,6.10
2012,04,02,09,48,6.10
2012,04,02,09,49,6.10
2012,04,02,09,50,6.20
2012,04,02,09,51,6.20
2012,04,02,09,52,6.20
2012,04,02,09,53,6.20
2012,04,02,09,54,6.30
2012,04,02,09,55,6.30
2012,04,02,09,56,6.30
2012,04,02,09,57,6.30
2012,04,02,09,58,6.30
2012,04,02,09,59,6.30
2012,04,02,10,00,6.40
2012,04,02,10,01,6.40
2012,04,02,10,02,6.40
2012,04,02,10,03,6.40
2012,04,02,10,04,6.50
2012,04,02,10,05,6.50
2012,04,02,10,06,6.50
2012,04,02,10,07,6.50
2012,04,02,10,08,6.60
2012,04,02,10,09,6.60
2012,04,02,10,10,6.60
2012,04,02,10,11,6.60
2012,04,02,10,12,6.60
2012,04,02,10,13,6.60
2012,04,02,10,14,6.60
2012,04,02,10,15,6.60
2012,04,02,10,16,6.60
2012,04,02,10,17,6.60
2012,04,02,10,18,6.60
2012,04,02,10,19,6.60
2012,04,02,10,20,6.60
2012,04,02,10,21,6.60
2012,04,02,10,22,6.60
2012,04,02,10,23,6.60
2012,04,02,10,24,6.60
2012,04,02,10,25,6.60
2012,04,02,10,26,6.60
2012,04,02,10,27,6.60
2012,04,02,10,28,6.60
2012,04,02,10,29,6.60
2012,04,02,10,30,6.70
2012,04,02,10,31,6.70
2012,04,02,10,32,6.70
2012,04,02,10,33,6.70
2012,04,02,10,34,6.70
2012,04,02,10,35,6.70
2012,04,02,10,36,6.70
2012,04,02,10,37,6.70
2012,04,02,10,38,6.70
2012,04,02,10,39,6.80
2012,04,02,10,40,6.80
2012,04,02,10,41,6.80
2012,04,02,10,42,6.80
2012,04,02,10,43,6.80
2012,04,02,10,44,6.80
2012,04,02,10,45,6.80
2012,04,02,10,46,6.90
2012,04,02,10,47,6.90
2012,04,02,10,48,6.90
2012,04,02,10,49,6.90
2012,04,02,10,50,7.00
2012,04,02,10,51,7.00
2012,04,02,10,52,7.00
2012,04,02,10,53,7.10
2012,04,02,10,54,7.10
2012,04,02,10,55,7.10
2012,04,02,10,56,7.10
2012,04,02,10,57,7.20
2012,04,02,10,58,7.20
2012,04,02,10,59,7.20
2012,04,02,11,00,7.20
2012,04,02,11,01,7.20
2012,04,02,11,02,7.30
2012,04,02,11,03,7.30
2012,04,02,11,04,7.30
2012,04,02,11,05,7.30
2012,04,02,11,06,7.30
2012,04,02,11,07,7.30
2012,04,02,11,08,7.40
2012,04,02,11,09,7.40
2012,04,02,11,10,7.40
2012,04,02,11,11,7.40
2012,04,02,11,12,7.40
2012,04,02,11,13,7.40
2012,04,02,11,14,7.50
2012,04,02,11,15,7.50
2012,04,02,11,16,7.50
2012,04,02,11,17,7.50
2012,04,02,11,18,7.60
2012,04,02,11,19,7.60
2012,04,02,11,20,7.60
2012,04,02,11,21,7.60
2012,04,02,11,22,7.60
2012,04,02,11,23,7.60
2012,04,02,11,24,7.60
2012,04,02,11,25,7.60
2012,04,02,11,26,7.60
2012,04,02,11,27,7.70
2012,04,02,11,28,7.70
2012,04,02,11,29,7.70
2012,04,02,11,30,7.70
2012,04,02,11,31,7.70
2012,04,02,11,32,7.70
2012,04,02,11,33,7.70
2012,04,02,11,34,7.70
2012,04,02,11,35,7.70
2012,04,02,11,36,7.70
2012,04,02,11,37,7.70
2012,04,02,11,38,7.70
2012,04,02,11,39,7.70
2012,04,02,11,40,7.80
2012,04,02,11,41,7.80
2012,04,02,11,42,7.80
2012,04,02,11,43,7.80
2012,04,02,11,44,7.80
2012,04,02,11,45,7.80
2012,04,02,11,46,7.90
2012,04,02,11,47,7.90
2012,04,02,11,48,8.00
2012,04,02,11,49,8.00
2012,04,02,11,50,8.10
2012,04,02,11,51,8.10
2012,04,02,11,52,8.10
2012,04,02,11,53,8.20
2012,04,02,11,54,8.20
2012,04,02,11,55,8.20
2012,04,02,11,56,8.20
2012,04,02,11,57,8.30
2012,04,02,11,58,8.30
2012,04,02,11,59,8.30
2012,04,02,12,00,8.30
2012,04,02,12,01,8.30
2012,04,02,12,02,8.40
2012,04,02,12,03,8.40
2012,04,02,12,04,8.40
2012,04,02,12,05,8.40
2012,04,02,12,06,8.40
2012,04,02,12,07,8.40
2012,04,02,12,08,8.30
2012,04,02,12,09,8.30
2012,04,02,12,10,8.30
2012,04,02,12,11,8.30
2012,04,02,12,12,8.30
2012,04,02,12,13,8.30
2012,04,02,12,14,8.30
2012,04,02,12,15,8.30
2012,04,02,12,16,8.30
2012,04,02,12,17,8.30
2012,04,02,12,18,8.30
2012,04,02,12,19,8.30
2012,04,02,12,20,8.30
2012,04,02,12,21,8.30
2012,04,02,12,22,8.40
2012,04,02,12,23,8.40
2012,04,02,12,24,8.40
2012,04,02,12,25,8.40
2012,04,02,12,26,8.40
2012,04,02,12,27,8.40
2012,04,02,12,28,8.40
2012,04,02,12,29,8.50
2012,04,02,12,30,8.50
2012,04,02,12,31,8.50
2012,04,02,12,32,8.50
2012,04,02,12,33,8.60
2012,04,02,12,34,8.60
2012,04,02,12,35,8.60
2012,04,02,12,36,8.60
2012,04,02,12,37,8.70
2012,04,02,12,38,8.70
2012,04,02,12,39,8.70
2012,04,02,12,40,8.70
2012,04,02,12,41,8.70
2012,04,02,12,42,8.80
2012,04,02,12,43,8.80
2012,04,02,12,44,8.80
2012,04,02,12,45,8.90
2012,04,02,12,46,8.90
2012,04,02,12,47,8.90
2012,04,02,12,48,9.00
2012,04,02,12,49,9.10
2012,04,02,12,50,9.10
2012,04,02,12,51,9.10
2012,04,02,12,52,9.20
2012,04,02,12,53,9.20
2012,04,02,12,54,9.30
2012,04,02,12,55,9.30
2012,04,02,12,56,9.30
2012,04,02,12,57,9.30
2012,04,02,12,58,9.30
2012,04,02,12,59,9.40
2012,04,02,13,00,9.40
2012,04,02,13,01,9.40
2012,04,02,13,02,9.40
2012,04,02,13,03,9.40
2012,04,02,13,04,9.50
2012,04,02,13,05,9.50
2012,04,02,13,06,9.50
2012,04,02,13,07,9.60
2012,04,02,13,08,9.60
2012,04,02,13,09,9.60
2012,04,02,13,10,9.70
2012,04,02,13,11,9.70
2012,04,02,13,12,9.70
2012,04,02,13,13,9.70
2012,04,02,13,14,9.80
2012,04,02,13,15,9.80
2012,04,02,13,16,9.80
2012,04,02,13,17,9.80
2012,04,02,13,18,9.90
2012,04,02,13,19,9.90
2012,04,02,13,20,9.90
2012,04,02,13,21,9.80
2012,04,02,13,22,9.80
2012,04,02,13,23,9.80
2012,04,02,13,24,9.80
2012,04,02,13,25,9.80
2012,04,02,13,26,9.90
2012,04,02,13,27,9.90
2012,04,02,13,28,9.90
2012,04,02,13,29,10.00
2012,04,02,13,30,10.00
2012,04,02,13,31,10.10
2012,04,02,13,32,10.20
2012,04,02,13,33,10.20
2012,04,02,13,34,10.20
2012,04,02,13,35,10.20
2012,04,02,13,36,10.30
2012,04,02,13,37,10.30
2012,04,02,13,38,10.30
2012,04,02,13,39,10.30
2012,04,02,13,40,10.40
2012,04,02,13,41,10.40
2012,04,02,13,42,10.40
2012,04,02,13,43,10.50
2012,04,02,13,44,10.50
2012,04,02,13,45,10.60
2012,04,02,13,46,10.60
2012,04,02,13,47,10.70
2012,04,02,13,48,10.70
2012,04,02,13,49,10.70
2012,04,02,13,50,10.70
2012,04,02,13,51,10.70
2012,04,02,13,52,10.70
2012,04,02,13,53,10.70
2012,04,02,13,54,10.70
2012,04,02,13,55,10.70
2012,04,02,13,56,10.70
2012,04,02,13,57,10.70
2012,04,02,13,58,10.80
2012,04,02,13,59,10.80
2012,04,02,14,00,10.80
2012,04,02,14,01,10.90
2012,04,02,14,02,10.90
2012,04,02,14,03,10.90
2012,04,02,14,04,10.90
2012,04,02,14,05,11.00
2012,04,02,14,06,11.00
2012,04,02,14,07,11.00
2012,04,02,14,08,11.00
2012,04,02,14,09,11.00
2012,04,02,14,10,10.90
2012,04,02,14,11,10.90
2012,04,02,14,12,11.00
2012,04,02,14,13,11.00
2012,04,02,14,14,11.00
2012,04,02,14,15,11.00
2012,04,02,14,16,11.00
2012,04,02,14,17,11.00
2012,04,02,14,18,11.00
2012,04,02,14,19,11.00
2012,04,02,14,20,10.90
2012,04,02,14,21,10.90
2012,04,02,14,22,10.90
2012,04,02,14,23,10.90
2012,04,02,14,24,10.90
2012,04,02,14,25,10.90
2012,04,02,14,26,10.90
2012,04,02,14,27,10.90
2012,04,02,14,28,10.80
2012,04,02,14,29,10.80
2012,04,02,14,30,10.80
2012,04,02,14,31,10.80
2012,04,02,14,32,10.80
2012,04,02,14,33,10.90
2012,04,02,14,34,10.90
2012,04,02,14,35,10.90
2012,04,02,14,36,10.90
2012,04,02,14,37,10.90
2012,04,02,14,38,10.90
2012,04,02,14,39,10.90
2012,04,02,14,40,11.00
2012,04,02,14,41,11.00
2012,04,02,14,42,11.00
2012,04,02,14,43,11.00
2012,04,02,14,44,11.00
2012,04,02,14,45,11.00
2012,04,02,14,46,11.00
2012,04,02,14,47,11.10
2012,04,02,14,48,11.10
2012,04,02,14,49,11.10
2012,04,02,14,50,11.10
2012,04,02,14,51,11.10
2012,04,02,14,52,11.10
2012,04,02,14,53,11.10
2012,04,02,14,54,11.10
2012,04,02,14,55,11.10
2012,04,02,14,56,11.10
2012,04,02,14,57,11.10
2012,04,02,14,58,11.10
2012,04,02,14,59,11.10
2012,04,02,15,00,11.10
2012,04,02,15,01,11.10
2012,04,02,15,02,11.10
2012,04,02,15,03,11.20
2012,04,02,15,04,11.20
2012,04,02,15,05,11.20
2012,04,02,15,06,11.20
2012,04,02,15,07,11.20
2012,04,02,15,08,11.20
2012,04,02,15,09,11.30
2012,04,02,15,10,11.30
2012,04,02,15,11,11.30
2012,04,02,15,12,11.30
2012,04,02,15,13,11.30
2012,04,02,15,14,11.30
2012,04,02,15,15,11.30
2012,04,02,15,16,11.40
2012,04,02,15,17,11.40
2012,04,02,15,18,11.40
2012,04,02,15,19,11.40
2012,04,02,15,20,11.40
2012,04,02,15,21,11.40
2012,04,02,15,22,11.50
2012,04,02,15,23,11.50
2012,04,02,15,24,11.50
2012,04,02,15,25,11.60
2012,04,02,15,26,11.60
2012,04,02,15,27,11.60
2012,04,02,15,28,11.60
2012,04,02,15,29,11.60
2012,04,02,15,30,11.60
2012,04,02,15,31,11.70
2012,04,02,15,32,11.70
2012,04,02,15,33,11.70
2012,04,02,15,34,11.70
2012,04,02,15,35,11.70
2012,04,02,15,36,11.70
2012,04,02,15,37,11.70
2012,04,02,15,38,11.70
2012,04,02,15,39,11.80
2012,04,02,15,40,11.80
2012,04,02,15,41,11.80
2012,04,02,15,42,11.80
2012,04,02,15,43,11.80
2012,04,02,15,44,11.80
2012,04,02,15,45,11.80
2012,04,02,15,46,11.80
2012,04,02,15,47,11.90
2012,04,02,15,48,11.90
2012,04,02,15,49,11.90
2012,04,02,15,50,11.90
2012,04,02,15,51,11.90
2012,04,02,15,52,11.90
2012,04,02,15,53,11.90
2012,04,02,15,54,11.90
2012,04,02,15,55,11.90
2012,04,02,15,56,11.90
2012,04,02,15,57,12.00
2012,04,02,15,58,12.00
2012,04,02,15,59,12.00
2012,04,02,16,00,12.00
2012,04,02,16,01,12.00
2012,04,02,16,02,12.00
2012,04,02,16,03,12.00
2012,04,02,16,04,12.00
2012,04,02,16,05,12.00
2012,04,02,16,06,12.00
2012,04,02,16,07,12.00
2012,04,02,16,08,12.00
2012,04,02,16,09,12.00
2012,04,02,16,10,12.00
2012,04,02,16,11,12.00
2012,04,02,16,12,12.00
2012,04,02,16,13,12.00
2012,04,02,16,14,12.00
2012,04,02,16,15,12.00
2012,04,02,16,16,12.00
2012,04,02,16,17,12.00
2012,04,02,16,18,12.00
2012,04,02,16,19,12.10
2012,04,02,16,20,12.10
2012,04,02,16,21,12.10
2012,04,02,16,22,12.10
2012,04,02,16,23,12.10
2012,04,02,16,24,12.10
2012,04,02,16,25,12.10
2012,04,02,16,26,12.10
2012,04,02,16,27,12.00
2012,04,02,16,28,12.10
2012,04,02,16,29,12.10
2012,04,02,16,30,12.00
2012,04,02,16,31,12.00
2012,04,02,16,32,12.00
2012,04,02,16,33,12.00
2012,04,02,16,34,12.00
2012,04,02,16,35,12.00
2012,04,02,16,36,12.00
2012,04,02,16,37,12.00
2012,04,02,16,38,11.90
2012,04,02,16,39,11.90
2012,04,02,16,40,11.90
2012,04,02,16,41,11.90
2012,04,02,16,42,11.90
2012,04,02,16,43,11.90
2012,04,02,16,44,11.80
2012,04,02,16,45,11.80
2012,04,02,16,46,11.80
2012,04,02,16,47,11.80
2012,04,02,16,48,11.80
2012,04,02,16,49,11.80
2012,04,02,16,50,11.80
2012,04,02,16,51,11.80
2012,04,02,16,52,11.70
2012,04,02,16,53,11.70
2012,04,02,16,54,11.70
2012,04,02,16,55,11.70
2012,04,02,16,56,11.70
2012,04,02,16,57,11.70
2012,04,02,16,58,11.70
2012,04,02,16,59,11.70
2012,04,02,17,00,11.70
2012,04,02,17,01,11.70
2012,04,02,17,02,11.70
2012,04,02,17,03,11.70
2012,04,02,17,04,11.70
2012,04,02,17,05,11.70
2012,04,02,17,06,11.70
2012,04,02,17,07,11.70
2012,04,02,17,08,11.70
2012,04,02,17,09,11.70
2012,04,02,17,10,11.70
2012,04,02,17,11,11.70
2012,04,02,17,12,11.70
2012,04,02,17,13,11.70
2012,04,02,17,14,11.60
2012,04,02,17,15,11.60
2012,04,02,17,16,11.60
2012,04,02,17,17,11.60
2012,04,02,17,18,11.60
2012,04,02,17,19,11.60
2012,04,02,17,20,11.60
2012,04,02,17,21,11.60
2012,04,02,17,22,11.50
2012,04,02,17,23,11.50
2012,04,02,17,24,11.50
2012,04,02,17,25,11.50
2012,04,02,17,26,11.40
2012,04,02,17,27,11.40
2012,04,02,17,28,11.40
2012,04,02,17,29,11.40
2012,04,02,17,30,11.40
2012,04,02,17,31,11.40
2012,04,02,17,32,11.40
2012,04,02,17,33,11.40
2012,04,02,17,34,11.40
2012,04,02,17,35,11.40
2012,04,02,17,36,11.40
2012,04,02,17,37,11.40
2012,04,02,17,38,11.30
2012,04,02,17,39,11.30
2012,04,02,17,40,11.30
2012,04,02,17,41,11.30
2012,04,02,17,42,11.30
2012,04,02,17,43,11.30
2012,04,02,17,44,11.30
2012,04,02,17,45,11.30
2012,04,02,17,46,11.30
2012,04,02,17,47,11.20
2012,04,02,17,48,11.20
2012,04,02,17,49,11.20
2012,04,02,17,50,11.20
2012,04,02,17,51,11.20
2012,04,02,17,52,11.20
2012,04,02,17,53,11.20
2012,04,02,17,54,11.20